This is the latest recevied weather packets stored in our database for station/object AA4OM-2. If no packets are shown the sender has not sent any weather packets the latest 10 day(s).
| Time | Temp. | Humidity | Pressure | Rain* | Wind** | Luminosity | Snow |
|---|---|---|---|---|---|---|---|
| 1777670332 | 18.33° C | 30% | 1015.4 hPa | 0 mm | - | 507 W/m² | - |
| 1777670029 | 18.33° C | 31% | 1015.4 hPa | 0 mm | - | 434 W/m² | - |
| 1777669726 | 18.33° C | 34% | 1015.5 hPa | 0 mm | - | 502 W/m² | - |
| 1777669423 | 17.78° C | 33% | 1015.7 hPa | 0 mm | - | 608 W/m² | - |
| 1777669119 | 18.33° C | 32% | 1015.8 hPa | 0 mm | - | 320 W/m² | - |
| 1777667906 | 17.78° C | 34% | 1016.2 hPa | 0 mm | - | 796 W/m² | - |
| 1777667603 | 17.78° C | 32% | 1016.6 hPa | 0 mm | - | 385 W/m² | - |
| 1777666391 | 17.78° C | 30% | 1016.6 hPa | 0 mm | - | 706 W/m² | - |
| 1777664570 | 18.33° C | 33% | 1016.9 hPa | 0 mm | - | 557 W/m² | - |
| 1777664266 | 18.33° C | 32% | 1017.1 hPa | 0 mm | - | 652 W/m² | - |
| 1777663359 | 18.33° C | 34% | 1017.6 hPa | 0 mm | - | 608 W/m² | - |
| 1777660625 | 17.78° C | 35% | 1017.6 hPa | 0 mm | - | 824 W/m² | - |
| 1777660323 | 17.78° C | 33% | 1017.5 hPa | 0 mm | - | 781 W/m² | - |
| 1777660019 | 17.78° C | 32% | 1017.7 hPa | 0 mm | - | 982 W/m² | - |
| 1777659715 | 17.78° C | 32% | 1017.4 hPa | 0 mm | - | 886 W/m² | - |
| 1777659412 | 17.78° C | 33% | 1017.6 hPa | 0 mm | - | 993 W/m² | - |
| 1777659110 | 17.78° C | 39% | 1017.8 hPa | 0 mm | - | 993 W/m² | - |
| 1777658808 | 17.78° C | 35% | 1017.4 hPa | 0 mm | - | 985 W/m² | - |
| 1777658503 | 17.22° C | 33% | 1017.6 hPa | 0 mm | - | 996 W/m² | - |
| 1777658200 | 17.22° C | 37% | 1017.5 hPa | 0 mm | - | 1023 W/m² | - |
| 1777656983 | 17.22° C | 40% | 1017.6 hPa | 0 mm | - | 945 W/m² | - |
| 1777656680 | 17.22° C | 38% | 1017.7 hPa | 0 mm | - | 1012 W/m² | - |
| 1777656375 | 16.67° C | 40% | 1017.8 hPa | 0 mm | - | 982 W/m² | - |
| 1777656070 | 17.22° C | 36% | 1017.6 hPa | 0 mm | - | 811 W/m² | - |
| 1777655767 | 17.78° C | 41% | 1017.7 hPa | 0 mm | - | 953 W/m² | - |
* Rain latest hour (hover to see other rain measurements)
** Current wind speed in m/s (hover to see current wind gust speed)